Location: Newark
(47.5333°N, 8.7000°E)
Time: 18:26:50
(UTC+00:00)

BEESAT 3 - Pass Details

Date: 01 December 2020
Orbit: 491 x 509 km, 64.9° (Epoch: 14 January)

Event Time Altitude Azimuth Distance (km) Brightness Sun altitude
Exits shadow 04:05:53 11° 22° (NNE) 1,704 ? -27.3°
Drops below altitude 10° 04:05:59 10° 23° (NNE) 1,738 ? -27.3°
Sets 04:08:18 0° 33° (NNE) 2,626 ? -26.9°
